GFSSW_sfc_temp_006.txt.gz
Temp
61 60 60 60 60 60 59 59 58 58 58 59 59 59 59 59 58 60 63 71 70 67 65 68 68 64 63 60 59 53 47 43 44 48 49 53 52 55 59 60 58 59 59 61 67
60 60 61 61 60 59 59 58 57 58 58 58 59 59 59 58 60 64 72 72 68 67 66 67 65 65 63 57 58 54 46 46 53 53 49 52 52 56 56 55 55 56 60 62 64
60 60 60 60 59 59 58 57 57 57 58 58 58 59 58 57 63 66 70 69 68 67 66 67 66 66 60 57 55 50 51 54 55 55 54 52 54 57 56 50 58 60 59 60 61
59 59 59 59 59 58 57 57 57 58 58 58 59 59 58 55 54 69 70 70 68 66 69 69 67 62 57 57 56 55 56 56 56 57 56 53 54 55 54 60 65 63 62 61 61
57 58 58 58 58 57 57 57 57 57 57 58 59 58 55 61 63 75 71 73 73 74 70 67 64 59 56 57 59 56 55 59 59 60 57 58 55 56 58 63 61 62 61 61 61
57 57 57 57 58 57 57 57 56 57 57 57 58 58 58 57 72 74 74 75 72 69 68 69 63 61 61 58 57 57 57 56 58 59 57 56 55 54 59 57 59 60 59 59 61
57 57 57 57 57 57 57 57 56 56 57 57 58 59 63 63 70 72 75 68 69 69 67 66 65 64 60 57 61 58 55 57 58 56 55 56 53 55 57 57 58 57 58 59 60
57 57 57 57 57 57 57 56 56 57 57 57 58 60 60 73 70 75 73 72 73 71 69 68 68 64 60 59 57 53 51 47 57 55 56 55 48 60 56 55 59 57 56 58 58
57 57 57 57 56 56 56 56 56 57 57 57 58 62 59 75 72 72 71 69 71 72 70 74 67 57 57 50 47 46 41 43 50 55 54 51 49 58 56 56 57 54 54 54 54
57 57 57 57 56 55 55 56 57 55 58 63 66 60 68 65 69 71 70 70 67 65 66 63 56 52 49 48 39 40 41 37 41 51 52 47 48 53 55 54 54 49 50 54 54
57 58 57 57 56 55 53 53 60 60 63 58 58 60 63 71 70 69 67 67 65 62 53 55 51 45 46 48 49 47 43 41 43 50 50 45 46 50 50 50 50 49 50 52 53
57 57 57 57 57 55 56 59 57 60 54 62 63 63 67 66 63 67 69 62 59 52 52 52 46 51 54 53 50 48 43 42 48 50 47 46 47 50 52 50 48 49 50 52 52
56 56 56 56 58 59 59 57 62 60 54 61 63 63 64 68 60 63 65 59 56 53 51 47 50 56 54 50 48 45 43 42 45 48 45 45 44 47 52 53 53 53 50 52 53
56 56 56 58 62 57 57 59 60 60 44 53 61 64 67 64 59 64 64 60 57 50 50 50 54 53 51 49 47 41 49 47 45 41 38 43 36 45 47 49 50 51 51 50 51
55 55 57 63 60 58 60 59 60 60 29 56 61 69 65 61 58 63 64 62 51 51 51 47 49 50 49 48 49 48 49 45 44 40 38 42 37 44 47 46 46 48 51 50 53
55 55 57 62 57 55 59 57 60 39 32 51 59 58 58 59 58 60 58 61 56 52 52 48 53 51 49 52 50 53 46 45 42 39 32 37 37 38 42 46 47 49 50 53 51
55 57 61 60 57 57 57 57 42 32 54 49 52 56 53 52 54 54 50 47 44 42 39 48 48 52 53 48 51 48 39 29 29 27 28 40 36 41 48 49 50 51 51 51 51
55 58 58 59 57 58 57 48 37 46 47 54 53 53 49 51 50 50 48 44 48 45 38 37 36 48 54 47 43 43 40 28 25 21 27 38 34 42 51 51 53 53 50 49 48
57 56 55 58 58 57 52 34 37 45 50 50 52 47 46 50 49 48 44 44 46 46 39 35 39 50 50 49 48 43 36 42 31 22 23 32 39 47 48 50 52 48 48 47 48
57 54 55 57 57 55 42 41 46 52 53 52 45 46 42 46 45 45 43 48 46 49 47 43 37 45 49 50 51 47 48 35 31 21 22 30 32 36 43 45 46 45 46 47 48
56 52 58 56 57 49 36 38 50 54 54 51 47 45 45 43 45 42 43 48 49 49 49 44 41 41 45 43 40 42 37 38 38 32 23 21 30 42 42 44 44 44 46 46 47
51 47 57 56 49 39 42 48 51 52 55 53 51 49 46 45 43 43 43 47 51 49 44 44 37 31 39 45 46 43 40 39 27 29 28 25 29 45 46 45 46 44 46 47 48
50 50 56 57 38 32 47 50 52 52 51 50 48 50 49 44 39 45 46 49 50 48 43 44 35 28 36 41 44 40 41 40 34 31 29 22 30 46 46 45 45 44 45 46 47
50 42 47 48 45 47 45 45 47 53 51 50 49 50 47 44 45 41 43 48 50 48 48 48 38 35 28 35 37 35 39 39 37 30 30 32 37 45 47 44 43 44 44 45 46
47 43 46 38 42 45 46 48 46 46 51 51 48 48 45 38 39 38 43 46 48 48 45 44 35 36 38 40 39 39 38 38 34 36 33 38 35 41 43 42 43 45 45 45 46
47 46 45 43 47 46 41 45 46 47 49 46 46 46 46 41 42 38 42 41 42 44 40 41 32 32 32 36 36 33 37 37 37 37 36 37 36 45 43 41 42 44 45 44 43
46 47 49 38 40 38 38 46 48 49 49 50 49 45 39 46 48 47 48 47 44 41 39 38 30 29 26 32 31 28 35 35 36 39 38 33 41 40 39 42 43 45 42 42 41

GFSSW_sfc_temp_009.txt.gz
Temp
61 61 61 60 60 60 59 59 59 58 58 59 59 59 59 59 58 61 71 77 75 66 68 73 74 73 73 70 69 66 61 56 58 60 63 66 67 69 71 69 69 70 70 72 76
60 60 60 60 60 59 59 59 58 58 58 58 59 59 59 58 60 71 76 70 67 66 73 73 71 71 70 69 67 65 60 59 63 64 65 66 68 69 69 67 67 68 69 70 72
60 60 60 60 60 60 59 58 57 58 58 58 58 59 58 58 69 74 70 68 68 68 74 74 73 74 67 68 66 64 62 63 64 67 68 66 67 69 68 65 69 71 69 69 70
59 59 60 60 60 59 58 57 56 58 58 58 59 59 58 58 59 79 70 69 67 71 73 74 73 69 65 65 66 64 64 66 67 66 67 67 68 67 67 72 73 73 73 71 70
57 58 59 59 59 58 57 56 57 57 57 58 59 59 59 68 70 80 70 74 78 77 73 73 70 67 64 66 67 65 66 66 68 66 68 67 67 67 67 73 72 71 69 70 71
57 57 57 58 58 58 57 56 56 57 57 58 59 58 66 63 79 77 75 78 78 78 74 75 72 71 67 65 66 67 67 65 67 67 67 66 66 67 70 70 69 68 71 71 71
57 57 57 57 57 57 56 56 56 56 57 58 58 59 69 69 78 76 78 77 77 78 75 75 74 73 69 66 66 65 63 64 64 64 66 65 64 65 70 70 68 67 69 70 70
57 57 56 57 57 57 56 56 56 57 57 58 58 61 66 78 77 77 78 78 78 78 77 75 74 69 67 68 64 61 60 58 63 64 65 67 60 69 68 68 69 67 66 66 68
57 57 57 56 56 56 56 56 56 57 57 57 62 68 66 78 75 76 77 75 75 76 74 74 71 64 65 60 58 56 55 54 58 61 62 64 60 67 67 64 65 65 65 66 67
57 57 57 57 56 55 55 56 57 57 59 62 68 66 71 69 72 74 76 74 71 72 71 69 63 61 59 60 50 52 53 54 53 60 61 57 59 62 61 58 60 62 62 64 67
57 58 58 57 56 55 58 61 65 64 66 63 63 63 67 74 74 72 72 73 71 66 60 61 60 54 56 57 57 56 53 52 56 58 58 54 56 60 60 60 59 60 62 64 66
57 57 57 56 56 55 58 62 62 65 60 64 65 66 69 70 66 70 73 67 64 58 61 59 53 59 58 57 57 56 53 52 55 56 56 56 57 58 60 57 58 60 61 63 64
56 57 56 56 55 59 61 62 65 65 58 63 66 66 68 71 63 64 68 65 60 56 55 54 57 59 58 55 54 53 53 51 51 55 55 54 55 56 60 60 61 62 62 64 66
56 56 56 56 61 61 61 64 63 64 48 55 63 68 69 68 62 68 67 66 61 56 57 56 59 56 55 53 54 49 55 53 51 50 49 52 48 54 55 58 59 61 62 64 65
56 56 57 62 61 61 63 62 63 62 35 58 62 73 67 63 62 66 67 65 56 55 58 54 55 54 53 54 55 53 53 51 51 49 49 50 50 53 55 55 57 60 61 63 62
56 56 58 62 59 61 61 62 62 43 35 54 62 60 60 59 59 62 60 64 62 56 56 54 59 58 56 57 56 55 52 50 49 48 42 45 46 49 53 54 56 60 61 60 60
56 57 61 61 60 60 59 59 46 37 55 52 55 58 55 54 55 56 52 51 49 49 44 52 54 57 57 55 57 54 48 42 40 39 40 46 45 49 54 55 57 58 58 57 57
56 57 57 59 58 59 59 51 39 47 50 56 56 54 52 54 53 52 51 48 52 49 45 44 44 53 56 53 50 49 47 39 32 34 38 44 42 48 54 57 58 56 56 57 57
56 57 57 58 58 58 55 38 41 47 54 54 55 50 50 53 52 51 48 48 50 51 46 42 45 54 54 55 55 50 44 48 37 28 34 42 47 52 55 56 55 54 55 55 57
57 56 57 57 58 56 45 43 49 54 55 55 48 50 47 49 49 48 48 52 51 52 54 48 42 50 53 56 55 53 52 43 41 31 30 40 40 46 48 51 51 52 53 55 57
55 54 59 57 58 51 40 43 51 55 56 54 51 48 49 48 49 47 48 52 54 53 53 50 46 47 50 48 46 49 46 44 44 39 33 29 40 50 50 52 52 52 52 54 56
52 50 58 58 51 43 45 52 52 54 56 55 53 52 49 48 47 47 47 50 53 55 49 49 43 39 45 50 52 50 46 45 38 35 36 33 37 53 53 54 53 53 53 55 56
52 53 57 58 41 37 50 51 53 53 51 53 51 52 52 47 43 48 49 52 52 53 50 50 41 36 42 46 50 47 47 43 40 38 36 31 39 52 52 51 54 53 54 55 55
51 44 49 49 48 48 47 48 49 53 52 51 51 53 49 46 47 46 47 52 52 52 47 50 42 40 37 42 44 40 43 44 43 35 37 38 43 50 53 52 52 52 53 55 54
49 46 48 41 45 48 49 50 48 48 53 53 50 50 48 41 44 44 48 50 51 49 49 48 40 41 42 44 43 42 42 42 40 42 36 42 43 48 51 51 51 53 53 52 53
49 47 46 44 48 48 43 48 48 49 51 49 48 49 50 45 46 44 48 47 47 50 47 45 39 38 35 39 39 35 41 41 42 42 41 42 41 52 52 51 50 51 51 50 48
48 49 50 39 42 42 42 49 50 50 50 52 50 48 43 49 52 53 51 49 50 48 44 42 37 34 32 35 35 33 39 40 42 44 44 39 48 48 48 48 51 51 49 43 43

GFSSW_sfc_temp_012.txt.gz
Temp
61 61 61 61 60 60 60 59 59 59 59 59 59 59 60 59 59 73 82 80 79 67 70 83 84 83 84 81 82 82 73 68 68 70 71 78 77 80 81 79 78 81 81 84 85
61 61 61 61 60 60 60 59 59 59 58 59 59 59 59 59 78 83 76 69 67 66 83 83 82 83 83 80 82 82 75 70 74 76 76 77 78 78 77 77 76 78 80 84 82
61 61 61 60 60 60 59 59 58 58 58 59 59 59 59 63 80 83 69 68 68 70 85 86 86 84 80 82 79 79 73 75 75 78 81 78 76 80 77 74 79 79 80 81 81
59 60 60 60 61 60 59 58 58 57 58 58 59 59 59 75 67 88 70 70 68 84 86 85 84 81 78 76 80 72 76 77 77 77 77 76 79 76 79 80 82 83 85 83 81
58 58 59 60 60 59 58 57 57 57 57 58 59 59 68 79 78 91 72 79 89 88 87 85 83 80 75 77 79 75 76 77 77 77 77 76 75 75 77 83 83 83 83 83 83
57 57 58 59 59 59 58 57 56 56 57 58 59 58 78 72 90 91 89 90 91 91 88 87 83 84 78 75 76 75 76 75 76 75 75 73 74 76 79 82 81 81 82 84 84
57 57 57 57 58 58 57 57 55 57 57 58 59 70 81 77 91 92 89 89 89 89 85 85 86 82 81 75 76 75 71 75 73 74 73 75 72 74 79 80 79 80 83 84 84
58 57 57 57 57 57 57 56 57 57 58 59 59 73 76 88 93 89 91 88 89 89 87 86 87 81 78 78 75 73 73 67 71 74 73 76 69 76 78 77 79 78 81 81 83
58 58 57 57 56 56 57 57 57 58 59 59 72 80 75 84 84 87 87 84 86 86 85 84 83 77 77 74 70 71 66 64 67 72 72 72 68 77 77 75 77 80 80 80 82
58 58 58 57 57 56 56 57 58 60 67 72 80 77 80 76 82 83 87 84 83 82 81 80 82 76 77 73 63 62 63 66 64 70 71 69 69 73 74 71 74 77 78 79 80
58 59 59 58 57 55 60 74 76 75 80 73 74 74 77 84 85 83 82 82 83 80 73 74 74 66 66 67 67 66 63 62 67 68 66 65 67 70 72 74 73 74 75 76 77
58 58 58 57 56 56 70 78 73 78 70 75 75 77 78 81 76 81 86 78 76 70 72 72 63 67 68 67 65 64 62 62 64 65 64 66 66 69 71 69 72 73 75 75 76
57 57 57 56 55 64 77 73 76 77 73 72 75 76 77 81 71 74 80 76 73 68 69 66 64 66 66 65 63 62 60 59 58 64 66 64 64 66 68 70 72 74 75 77 76
57 56 57 55 65 76 74 75 76 74 66 64 71 75 77 77 70 78 77 74 70 66 68 65 66 64 64 61 63 58 62 61 59 59 59 64 57 61 65 66 69 71 73 73 74
56 58 56 59 75 78 73 76 75 74 47 66 70 82 78 72 71 73 76 76 66 64 66 59 63 63 61 60 63 59 61 60 59 59 59 60 59 60 66 63 66 69 69 71 71
56 58 58 71 76 72 75 74 74 59 44 61 70 68 69 70 68 73 72 76 71 68 69 64 68 66 64 64 63 64 60 59 60 60 51 55 56 57 63 60 64 68 68 68 69
56 58 68 75 73 72 73 75 60 51 61 60 62 66 65 62 64 66 64 61 61 57 56 62 62 66 65 63 65 65 59 51 46 47 47 55 54 55 60 63 64 64 66 67 68
56 59 60 71 75 71 75 67 50 55 58 64 64 64 60 62 61 62 61 60 63 61 59 55 51 60 64 60 57 58 57 48 38 43 48 55 51 56 63 65 65 66 66 67 67
57 72 73 70 70 72 73 55 54 59 64 62 64 59 58 61 62 61 58 58 59 61 55 53 52 62 61 63 61 57 53 56 45 36 42 55 55 60 63 63 64 64 64 65 66
75 74 71 69 70 73 65 52 59 62 64 65 57 59 55 58 58 58 57 59 57 61 63 55 50 57 60 63 63 60 60 51 52 36 36 51 52 56 57 59 60 61 63 65 66
73 70 69 69 70 73 58 57 60 63 64 62 59 57 58 56 59 55 55 58 61 60 63 59 55 54 57 56 55 57 55 53 54 49 40 38 49 61 59 60 60 61 63 63 64
68 64 69 69 66 64 61 62 56 62 65 63 63 61 58 57 55 55 54 57 61 61 56 57 54 49 52 57 59 58 54 54 46 40 45 41 45 62 62 62 61 62 61 63 64
70 68 71 69 55 53 59 59 61 62 60 61 59 61 61 56 51 56 56 58 60 61 57 58 51 46 49 53 57 54 55 54 50 46 41 36 47 62 63 61 64 62 62 63 64
70 57 66 69 64 63 59 58 57 62 59 62 59 62 59 56 58 54 54 57 58 59 48 55 53 49 46 50 53 49 52 54 51 41 44 46 50 58 61 61 63 62 61 63 63
67 60 60 55 58 63 62 61 58 56 61 62 59 60 58 51 53 52 56 56 57 52 57 57 47 50 52 54 54 51 50 52 50 50 42 47 50 56 59 59 60 60 61 60 59
64 62 62 59 60 62 54 59 59 57 60 57 58 59 60 54 56 52 56 56 55 57 56 55 47 45 43 49 51 47 52 53 52 52 51 51 50 59 60 60 57 57 56 54 53
63 63 68 48 56 58 57 60 59 61 58 63 62 59 53 59 63 61 60 59 58 55 51 50 46 41 37 44 44 37 47 51 52 53 52 45 54 57 55 54 54 55 54 49 47

GFSSW_sfc_temp_015.txt.gz
Temp
61 61 61 61 61 61 60 60 59 59 59 59 59 59 60 60 59 76 84 80 81 69 71 90 89 90 91 88 90 91 78 72 73 73 75 82 80 84 87 82 83 85 86 87 87
61 61 62 61 60 60 60 60 59 59 59 59 59 59 60 59 78 88 76 69 68 68 87 87 86 89 88 86 88 83 78 75 80 81 79 81 82 81 80 80 80 82 86 88 86
61 61 61 61 60 60 60 60 59 59 59 59 59 59 59 63 78 87 68 70 69 72 92 93 92 90 83 87 84 83 76 79 79 82 84 82 80 84 81 77 81 81 83 85 84
60 60 60 61 61 60 60 59 59 59 58 59 59 60 60 75 70 91 73 71 69 88 93 91 90 85 82 79 85 76 81 82 82 82 82 80 84 80 82 83 87 88 87 86 84
58 59 59 60 60 60 59 59 58 58 58 58 59 60 70 79 82 96 77 77 91 94 93 90 86 84 78 81 82 78 79 82 82 81 82 82 79 79 80 86 87 88 87 85 86
58 58 58 59 60 59 59 57 57 57 57 58 59 59 76 75 94 97 96 96 96 96 92 92 87 88 83 82 80 82 81 80 81 80 80 77 78 80 82 87 86 86 86 87 87
58 58 58 58 59 58 58 57 57 56 57 59 60 73 81 81 96 98 95 94 95 94 89 91 92 87 86 78 84 81 75 78 79 80 78 81 75 77 84 86 84 85 87 88 88
59 58 57 57 57 57 57 56 56 57 58 59 60 78 79 93 99 94 96 93 95 95 93 93 93 87 85 85 81 77 77 70 77 79 79 79 71 80 84 83 83 85 86 86 88
59 58 58 57 57 57 57 57 57 58 59 60 73 78 77 82 88 93 94 89 91 91 91 90 90 84 82 76 73 75 69 69 70 79 77 77 74 81 84 82 82 84 85 86 87
59 59 58 58 57 57 57 57 58 60 66 80 86 79 83 81 87 89 93 91 87 86 84 84 84 79 80 76 64 68 68 71 69 75 76 75 75 79 81 79 80 84 85 85 85
60 60 59 58 58 57 60 77 78 76 83 78 80 78 82 88 91 87 89 88 87 84 76 80 75 71 71 73 73 71 69 68 73 74 70 71 73 75 78 80 78 80 81 82 83
59 59 59 58 58 57 70 81 79 84 73 82 82 82 84 87 80 84 91 81 79 75 77 75 69 72 73 72 71 69 67 67 70 71 70 72 72 74 76 75 79 79 79 80 79
58 59 58 57 56 64 82 80 86 86 75 76 80 80 80 86 77 78 86 82 78 74 74 70 70 72 71 70 68 68 66 64 64 70 73 70 69 70 73 76 78 79 80 80 78
58 59 57 55 63 83 80 83 85 82 69 68 75 78 82 82 73 84 84 80 76 71 73 70 72 69 69 66 68 63 68 65 65 64 62 72 61 68 71 71 73 75 76 77 77
57 59 56 57 81 82 80 85 84 79 50 70 74 86 83 76 77 77 85 81 72 71 71 65 67 67 65 65 68 64 67 66 66 64 65 66 63 63 71 67 69 72 73 74 75
57 59 57 71 82 81 84 83 80 62 48 65 74 73 73 75 74 78 78 82 79 72 74 69 74 71 68 69 68 70 66 66 66 65 53 62 62 62 66 67 68 71 71 72 74
57 59 63 84 78 81 81 78 62 53 68 63 66 71 71 68 69 72 69 68 68 61 61 67 66 71 70 67 70 70 64 53 49 50 50 62 59 60 66 69 70 69 71 71 73
58 60 67 80 84 79 78 70 52 62 65 71 70 70 65 69 66 68 68 65 69 68 66 60 54 65 69 65 62 63 62 50 41 45 52 61 55 61 69 70 71 71 71 71 71
57 78 79 76 78 78 75 57 59 65 70 67 69 64 62 66 67 66 64 63 64 67 61 59 57 67 67 69 68 62 57 62 50 46 46 58 62 66 69 67 69 68 69 69 71
80 79 78 76 77 76 68 57 64 69 71 72 62 64 60 63 63 64 62 64 62 66 69 62 54 63 65 68 68 64 66 54 56 39 39 54 57 57 60 64 65 67 68 69 71
78 73 73 78 76 75 61 63 66 70 71 68 64 62 64 61 64 61 60 63 66 65 69 65 60 59 63 61 60 62 60 58 59 52 42 41 51 65 64 65 64 66 68 69 69
74 67 76 77 69 71 65 67 60 68 71 68 69 67 64 63 61 60 60 62 66 66 61 62 59 52 58 63 65 63 60 59 48 45 49 45 47 67 66 67 66 67 69 68 69
75 72 77 74 59 59 66 65 68 67 68 67 64 67 68 63 56 61 61 63 65 65 61 63 56 49 54 58 62 59 60 59 55 50 44 40 47 67 67 67 69 68 68 67 65
75 61 71 74 74 69 64 64 61 68 66 68 66 68 65 61 65 59 59 61 63 64 50 58 59 52 47 53 59 54 58 60 57 45 46 48 54 62 64 64 65 66 67 64 63
77 67 69 60 65 69 69 67 63 60 67 69 64 66 63 56 60 58 62 60 62 52 61 61 50 55 57 59 59 57 56 57 55 55 46 51 54 59 62 62 63 64 64 62 62
71 68 71 68 69 67 58 64 64 63 65 63 64 66 66 58 61 57 62 61 60 61 61 60 49 49 47 56 57 52 56 58 58 57 56 56 53 64 65 65 62 60 60 58 56
74 74 73 55 66 63 63 65 66 66 63 70 68 65 59 64 67 67 66 65 64 60 56 54 50 46 41 49 46 39 50 56 57 59 56 47 55 63 60 57 54 55 56 55 50

GFSSW_sfc_temp_018.txt.gz
Temp
61 61 61 61 61 61 61 60 60 60 59 60 60 60 60 60 59 70 77 81 81 70 72 86 88 87 88 85 88 88 73 70 71 72 73 81 78 84 87 81 84 85 83 83 85
61 62 62 61 61 61 61 60 60 59 59 59 59 59 59 59 70 80 78 70 70 69 84 84 83 86 82 85 85 80 72 73 80 80 77 80 81 80 79 78 78 80 84 84 84
61 61 61 61 61 61 60 60 60 59 59 59 59 59 59 61 73 83 71 72 70 70 87 92 92 87 81 85 83 81 72 78 79 80 83 80 79 83 79 74 79 77 79 81 81
60 60 61 61 61 61 60 60 59 59 59 59 59 59 60 67 67 88 71 73 70 85 88 90 88 81 80 78 84 76 80 81 80 82 82 79 82 79 81 80 86 85 84 82 80
59 59 59 60 61 60 60 59 59 58 58 58 59 60 66 73 81 94 79 75 85 87 89 89 85 85 78 81 82 77 79 81 82 81 81 82 78 79 79 84 87 87 85 82 82
58 58 58 59 60 60 59 58 58 58 57 58 59 59 69 70 95 97 97 96 96 94 92 92 88 89 83 81 79 81 80 79 81 80 80 77 78 79 82 85 84 84 83 83 83
58 58 58 58 58 59 59 58 57 57 57 58 60 68 76 79 97 99 97 95 96 94 89 92 92 86 85 78 84 82 74 77 78 79 77 80 73 74 83 85 82 82 83 84 85
59 58 58 58 58 58 58 57 57 56 58 59 60 72 74 94 96 94 97 94 96 96 93 94 93 87 84 85 80 75 76 67 76 79 79 77 67 79 83 82 80 82 83 84 85
59 58 58 57 57 57 57 57 57 58 59 60 67 74 76 84 88 94 94 90 92 93 92 92 89 83 82 74 70 72 64 68 70 80 78 76 70 79 83 82 80 82 83 83 84
59 59 58 58 57 57 57 58 59 58 63 76 81 75 84 81 88 90 94 91 88 87 84 83 82 76 76 72 58 62 67 70 69 74 75 73 73 79 81 80 79 80 82 82 82
61 59 59 58 58 57 58 69 73 72 79 78 79 79 83 89 92 88 91 88 87 83 73 80 72 67 70 72 73 72 69 68 72 74 70 70 72 76 78 79 78 79 80 81 76
61 60 59 59 58 58 63 76 81 84 72 83 83 83 86 89 80 85 92 80 78 72 78 74 67 73 75 74 72 71 67 67 72 73 69 70 70 74 75 76 78 78 78 76 75
60 60 59 58 57 61 77 81 89 86 74 77 83 81 81 86 79 79 85 83 77 73 74 66 69 75 72 71 68 70 65 64 63 70 72 69 66 68 73 76 77 78 78 77 74
59 60 58 56 61 81 79 86 87 83 66 68 74 79 83 84 74 85 86 81 77 72 74 70 74 71 70 68 68 62 68 66 65 63 57 70 54 65 68 69 72 73 73 73 74
59 61 56 55 70 80 82 86 86 79 47 71 75 88 84 76 78 78 87 81 73 72 72 66 68 68 66 65 69 64 68 66 65 62 62 64 59 63 69 65 67 70 71 72 72
59 59 56 67 73 82 85 84 79 58 46 65 75 73 73 76 76 79 79 83 81 73 74 70 76 71 68 70 70 71 67 67 66 62 50 61 60 55 63 65 68 70 71 72 72
59 57 63 80 75 83 81 77 59 52 71 64 67 73 71 68 71 73 71 69 66 60 60 67 67 72 72 66 71 69 63 49 44 47 45 62 58 58 66 69 70 68 69 70 71
59 59 68 81 83 80 77 67 51 64 65 74 71 71 65 69 68 70 69 64 69 67 65 59 52 66 71 65 62 64 61 47 39 39 46 62 54 56 68 70 71 71 70 70 70
58 74 77 76 79 78 71 55 59 65 72 68 70 64 63 67 68 68 65 63 64 67 59 58 56 68 68 70 68 61 55 63 51 44 42 54 59 64 67 66 68 68 69 69 70
75 75 77 78 79 74 65 56 66 72 74 73 62 67 61 64 64 65 64 66 64 68 71 63 54 65 67 69 69 65 67 52 52 38 38 50 54 51 59 62 65 67 67 68 70
71 70 73 79 76 71 59 63 68 74 74 70 67 64 66 63 66 64 63 65 68 67 70 65 61 58 65 61 59 61 59 59 58 51 40 38 48 63 62 65 63 65 68 67 67
73 63 75 77 65 68 64 68 61 69 72 70 72 69 66 65 63 62 61 62 68 68 61 63 59 49 58 65 67 64 60 59 44 44 46 43 45 67 66 67 66 65 66 67 67
70 69 76 75 58 60 67 68 71 69 70 69 66 69 70 65 57 63 61 65 66 64 58 62 56 47 52 58 64 59 62 60 56 48 41 37 44 67 66 61 64 63 65 63 64
72 61 69 71 73 67 64 64 63 71 68 71 68 70 66 62 66 60 58 62 65 63 52 58 59 53 45 53 59 54 58 61 57 42 43 45 50 59 63 61 62 63 64 63 62
73 66 70 59 64 68 69 68 64 61 70 71 66 67 65 57 61 59 62 60 63 54 61 62 51 55 56 58 59 57 56 57 55 55 45 50 53 59 59 61 61 61 61 61 60
68 68 71 69 70 68 59 65 65 67 66 65 64 67 67 59 62 58 63 62 60 62 61 62 48 48 46 58 56 51 54 55 57 57 56 55 53 64 61 59 57 56 57 58 56
75 76 72 58 67 64 63 66 67 67 66 72 70 66 57 63 66 66 66 66 65 61 57 55 49 44 40 47 45 38 49 56 56 58 56 46 55 58 56 56 56 56 57 54 52

GFSSW_sfc_temp_021.txt.gz
Temp
61 61 61 61 60 60 61 61 60 59 59 59 59 59 60 59 58 62 67 73 74 68 70 76 77 77 75 72 75 72 57 57 62 62 62 68 68 72 75 74 74 74 73 73 75
61 62 62 61 60 60 61 60 59 59 59 59 59 59 59 58 61 69 77 71 69 68 74 74 73 75 69 70 71 66 57 60 67 68 65 66 68 70 70 69 68 70 75 76 75
61 61 61 61 61 60 61 60 59 59 59 59 59 59 58 58 63 74 71 70 68 69 76 78 79 76 69 68 70 64 60 66 69 70 71 66 69 71 67 62 69 66 70 72 72
61 60 60 61 60 60 60 60 59 59 59 59 59 59 59 59 60 75 71 69 68 73 76 77 75 69 65 63 69 64 70 72 70 72 70 69 71 69 65 68 75 74 74 72 71
59 59 59 60 60 59 60 59 59 59 58 58 58 59 59 62 69 86 71 70 74 78 77 75 73 71 67 69 70 67 68 72 72 72 70 74 69 70 68 74 76 76 76 73 73
58 58 58 58 59 59 59 59 58 57 57 58 58 59 58 62 86 90 87 77 81 78 79 78 77 78 72 70 66 70 71 69 69 69 70 68 68 66 67 75 74 75 72 73 74
58 58 57 58 58 58 59 58 57 57 57 58 59 62 65 69 84 83 88 81 83 83 80 82 80 75 73 69 73 72 65 67 67 69 66 68 60 65 70 74 73 72 73 73 75
58 58 57 57 57 57 58 57 57 56 57 58 59 61 64 86 82 88 85 84 87 87 84 82 82 76 71 72 71 65 62 55 65 69 69 66 54 66 72 71 68 71 72 73 73
58 58 57 57 57 57 57 56 56 57 58 59 58 60 66 81 80 84 83 82 83 84 80 88 78 69 71 60 55 57 50 56 61 70 67 62 58 66 70 71 68 66 68 70 71
58 58 58 57 57 56 56 57 57 57 59 67 71 63 73 75 81 83 81 83 78 77 75 71 67 61 60 56 48 52 55 54 56 59 63 58 57 63 66 69 67 64 66 65 67
59 59 58 57 57 56 53 54 60 60 63 65 68 70 77 81 82 79 84 79 77 71 61 68 58 53 57 61 64 62 59 56 56 65 61 59 59 61 64 64 62 63 64 64 65
59 59 58 58 57 57 53 60 68 69 60 74 76 76 81 81 74 77 82 70 68 61 66 61 54 64 68 66 63 63 59 55 60 66 60 55 57 59 65 63 65 64 63 63 63
59 59 59 57 57 54 59 67 76 72 60 70 76 76 76 79 72 72 75 72 67 63 62 56 61 70 68 62 61 59 55 55 55 61 58 56 52 57 64 66 68 66 66 65 63
59 58 57 56 57 63 63 75 74 68 51 62 69 73 78 77 68 78 79 71 68 62 63 61 68 66 63 61 61 54 62 60 59 53 45 55 41 51 59 60 63 63 60 61 62
58 58 56 58 58 64 71 75 72 66 32 65 69 81 77 70 70 70 77 72 63 65 63 57 61 60 59 60 63 57 61 58 57 51 48 52 45 49 58 56 58 59 61 60 60
59 58 56 59 56 67 71 70 66 46 35 61 70 67 66 69 70 72 70 73 72 66 64 61 67 63 60 65 64 65 59 58 56 51 36 50 48 48 52 58 58 60 61 62 60
58 56 58 69 62 69 67 63 44 36 65 59 62 67 65 63 66 67 64 60 55 50 50 60 60 62 66 58 62 59 51 35 34 32 33 52 50 47 56 61 61 59 57 58 59
58 56 62 70 68 67 63 54 39 59 59 68 65 65 60 63 63 64 61 54 60 58 53 48 44 58 65 59 53 55 52 33 31 29 34 52 44 47 59 62 63 63 60 61 60
58 61 63 64 68 65 57 41 47 58 66 63 64 58 58 63 60 60 56 55 57 58 51 49 49 61 63 63 60 55 45 54 41 35 30 43 50 57 60 62 63 61 61 58 60
59 60 62 67 67 61 51 46 58 67 68 66 56 60 53 58 57 56 56 60 58 61 60 56 47 59 62 62 62 57 59 42 38 30 30 40 43 42 52 55 58 60 59 60 60
58 56 63 68 64 56 44 51 63 70 67 62 59 58 60 57 59 57 56 59 62 61 60 55 51 50 58 53 51 52 49 50 49 38 29 26 36 52 52 55 55 57 58 56 55
57 50 63 64 52 51 49 61 58 64 67 65 63 63 59 59 56 56 53 56 62 60 54 54 49 36 50 57 60 56 52 51 32 36 32 30 35 55 53 57 56 56 56 55 56
55 56 64 62 42 41 58 63 65 63 63 62 61 63 63 56 50 54 54 59 60 56 50 53 46 33 42 50 56 52 56 55 46 36 34 25 32 58 60 55 58 55 54 56 55
56 47 54 55 57 55 58 57 58 65 63 65 63 63 59 56 59 52 52 57 58 56 51 53 51 42 34 44 49 45 51 53 46 30 33 34 42 51 51 52 53 52 52 52 53
57 53 55 44 50 54 58 59 57 56 62 63 59 60 57 47 52 50 53 54 56 53 54 52 42 46 48 51 52 49 49 49 47 45 35 40 45 48 48 48 50 52 53 53 51
56 56 57 54 58 55 52 57 57 60 60 58 56 60 59 51 52 49 54 53 51 54 52 52 36 38 37 49 48 43 47 48 49 49 47 47 45 52 51 52 50 51 51 49 49
60 62 57 50 53 49 51 57 59 59 59 63 59 53 47 54 55 55 55 55 55 52 48 45 36 32 31 40 37 30 41 48 49 51 48 38 45 49 47 48 46 45 47 48 47

GFSSW_sfc_temp_027.txt.gz
Temp
61 61 61 61 60 60 60 59 59 60 59 59 59 59 59 59 57 57 59 69 66 67 69 69 67 68 66 61 64 60 54 51 55 59 61 70 66 67 68 66 66 66 64 69 67
61 61 62 61 61 60 59 59 59 60 59 59 59 59 58 58 55 59 69 68 67 67 70 69 66 67 60 58 62 60 51 56 64 66 63 64 66 66 64 61 60 61 66 68 66
61 61 61 61 60 60 59 59 60 59 59 59 59 59 58 58 57 67 71 70 67 69 72 71 70 68 60 62 63 61 57 62 64 67 68 65 63 64 62 56 62 62 63 65 65
60 60 60 60 60 60 59 58 59 59 59 59 59 59 58 54 54 70 70 67 68 72 72 68 66 64 59 60 64 59 63 66 65 66 65 63 66 63 58 64 68 68 67 66 65
59 59 59 59 59 59 59 58 58 59 58 58 58 58 55 57 63 77 68 68 70 71 69 68 66 65 61 61 63 61 62 64 65 67 63 67 63 64 61 64 69 69 68 67 67
58 58 58 58 58 58 58 57 59 58 58 58 58 58 53 56 75 77 72 71 72 69 69 70 69 69 63 63 61 66 62 62 64 64 63 64 61 61 59 64 66 68 67 67 68
58 57 57 57 57 57 57 57 58 57 57 57 58 58 57 64 72 72 76 73 73 73 71 72 72 68 67 61 66 64 59 61 60 59 60 64 57 56 61 65 65 67 68 67 69
58 57 57 56 57 57 57 57 57 57 57 57 58 55 58 76 73 77 73 77 78 76 75 77 74 69 65 64 62 57 56 50 57 61 60 60 52 58 61 63 63 64 64 64 64
57 57 56 56 56 56 56 56 55 56 57 58 53 53 61 77 75 80 78 76 76 77 73 81 72 63 63 55 50 52 45 48 54 60 59 57 53 58 60 64 61 58 58 58 58
57 57 57 56 56 55 55 56 56 56 56 61 62 56 68 69 74 75 75 75 73 71 70 68 61 57 54 51 43 47 47 41 50 55 56 51 56 56 58 59 55 51 54 55 55
57 57 57 56 56 55 52 51 55 55 57 60 62 63 67 73 75 72 75 73 72 67 58 61 55 49 51 53 56 54 49 48 49 55 55 52 52 51 51 52 50 51 53 54 55
57 58 57 57 56 56 52 58 63 64 55 64 66 66 71 72 66 70 73 66 63 55 59 56 50 56 61 58 57 55 51 48 52 58 55 50 47 51 52 50 51 53 53 54 54
57 58 57 56 55 53 56 61 67 65 55 63 68 67 69 71 65 66 69 64 60 57 55 51 55 62 60 55 55 51 49 48 50 53 54 50 46 47 53 55 56 54 55 56 55
57 57 55 55 54 56 58 66 66 64 47 56 63 68 71 70 62 70 70 66 61 56 57 55 60 59 56 54 53 47 54 54 52 48 42 49 35 45 49 50 52 52 51 53 55
57 56 55 56 56 57 66 66 65 62 31 58 63 74 69 64 64 65 70 66 57 58 57 51 53 54 54 53 55 52 55 52 51 44 42 45 38 41 49 45 48 49 52 53 56
56 55 55 55 53 61 63 61 62 42 33 54 63 60 61 62 61 63 65 67 63 58 57 55 58 56 54 57 56 57 53 50 46 44 34 43 40 39 43 47 49 51 54 56 55
55 55 55 62 60 63 60 58 41 33 56 52 54 59 57 55 58 58 55 53 50 46 45 53 53 57 58 52 55 53 45 33 32 30 31 45 41 41 49 52 53 51 51 52 52
55 54 55 60 61 61 58 51 36 50 52 58 57 56 54 56 55 55 52 49 54 51 46 43 41 52 58 52 49 48 46 32 33 28 32 45 36 42 50 54 55 55 54 53 52
54 53 56 59 61 59 53 38 42 48 57 56 56 51 50 55 55 53 48 48 50 51 46 43 44 54 55 55 54 48 41 48 35 31 29 36 42 50 50 52 53 53 55 52 50
56 55 56 61 59 57 47 43 50 58 59 59 50 53 48 52 51 49 48 53 52 54 53 50 42 52 56 56 55 52 53 39 34 28 29 34 36 37 46 48 52 49 48 48 49
55 53 58 60 58 51 41 45 54 61 61 57 54 51 53 50 51 48 48 52 53 54 54 50 46 45 51 48 45 48 44 43 41 33 27 24 32 45 48 49 48 46 48 49 49
52 47 58 58 48 42 45 53 56 58 62 59 57 55 52 51 48 48 48 50 54 53 48 48 43 34 44 52 53 49 45 43 30 34 28 27 32 48 48 50 50 49 50 48 48
50 50 58 57 39 36 49 56 57 56 57 56 54 55 55 49 45 48 48 52 53 51 48 49 41 32 39 46 50 45 47 43 39 33 32 24 31 49 49 47 48 46 47 46 46
50 43 49 50 48 49 48 51 52 58 57 57 56 57 53 49 50 46 47 52 52 51 50 51 43 39 34 39 43 40 44 43 41 29 31 31 36 43 43 44 45 45 45 44 45
50 46 49 42 45 48 51 52 51 50 56 57 54 54 51 44 45 43 47 49 52 51 49 47 39 40 41 43 43 43 43 42 40 39 34 37 38 43 43 43 44 46 44 44 45
50 48 48 46 50 50 46 50 52 53 54 52 52 51 51 48 49 45 48 46 46 48 45 45 35 37 36 41 40 38 43 41 41 41 41 40 38 45 45 45 45 45 44 44 48
52 53 52 43 45 45 45 52 54 55 52 54 53 48 44 48 49 48 48 50 50 47 42 40 34 32 29 34 35 30 39 42 43 44 43 34 41 43 42 43 42 42 43 44 44